Flag for Germany Weather past 2 weeks in Oberursel (Taunus), Hesse, Germany

Now
54 °F

Passing clouds.


Feels Like: 53 °F
Forecast: 43 / 59 °F
Wind: 5 mph from Northwest

Location: Frankfurt / M-Flughafen

Current Time: Sep 22, 2014 at 5:20:47 AM

Latest Report: Sep 22, 2014 at 4:00 AM


Visibility: 16 mi

Pressure: 30.10 "Hg

Humidity: 85%

Dew point: 49 °F

Location of Oberursel (Taunus)Location

Historic Weather in Oberursel (Taunus) — Graph

°F

Oberursel (Taunus) temperature yesterday

Maximum temperature yesterday: 66 °F (at 2:00 PM)
Minimum temperature yesterday: 58 °F (at 10:00 PM)
Average temperature yesterday: 61 °F

Past Weeks' High & Low Weather Summary

 TemperatureHumidityPressure
High76 °F (Sep 17, 4:00 PM)98% (Sep 21, 2:00 AM)30.19 "Hg (Sep 21, 2:00 AM)
Low47 °F (Sep 11, 4:00 AM)43% (Sep 9, 6:00 PM)29.85 "Hg (Sep 18, 5:00 PM)
Average63 °F79%30.01 "Hg
* Reported Sep 7 4:00 AM — Sep 22 4:00 AM, Oberursel (Taunus), Weather by CustomWeather, © 2014

Note: Actual official high and low records may vary slightly from our data, if they occured in-between our weather recording intervals... More about our weather records

Advertising

Oberursel (Taunus) weather history for previous 24 hours

 ConditionsComfort  
Time TempWeatherWind HumidityBarometerVisibility
4:00 AM
Sep 22
54 °FPassing clouds.5 mph85%30.10 "Hg16 mi
3:00 AM53 °FPassing clouds.3 mph87%30.10 "Hg16 mi
2:00 AM54 °FClear.5 mph85%30.11 "Hg22 mi
1:00 AM54 °FClear.5 mph85%30.09 "Hg22 mi
12:00 AM55 °FPassing clouds.3 mph86%30.09 "Hg22 mi
10:00 PM
Sep 21
58 °FPassing clouds.5 mph84%30.06 "Hg22 mi
9:00 PM59 °FPassing clouds.5 mph81%30.04 "Hg22 mi
8:00 PM61 °FPassing clouds.3 mph79%30.02 "Hg22 mi
7:00 PM62 °FOvercast.2 mph86%30.00 "Hg22 mi
6:00 PM62 °FSprinkles. Overcast.3 mph84%29.99 "Hg6 mi
5:00 PM62 °FLight rain. Low clouds.2 mph91%29.97 "Hg19 mi
4:00 PM62 °FLight rain. Overcast.3 mph90%29.96 "Hg11 mi
3:00 PM64 °FRain showers. Overcast.5 mph87%29.96 "Hg5 mi
2:00 PM66 °FOvercast.3 mph84%29.96 "Hg12 mi
1:00 PM64 °FLow clouds.5 mph91%29.97 "Hg16 mi
12:00 PM63 °FLight rain. Low clouds.3 mph93%29.97 "Hg12 mi
10:00 AM62 °FLight rain. Low clouds.3 mph97%29.96 "Hg9 mi
9:00 AM61 °FLight rain. Low clouds.3 mph97%29.96 "Hg4 mi
8:00 AM61 °FLight rain. Low clouds.2 mph98%29.96 "Hg3 mi
7:00 AM61 °FLow clouds.3 mph98%29.96 "Hg7 mi
6:00 AM60 °FLow clouds.3 mph98%29.96 "Hg6 mi
5:00 AM60 °FPassing clouds.1 mph98%29.96 "Hg9 mi
Weather by CustomWeather, © 2014

See weather overviewHow to use our weather pages